GW5614 Weather Reports


Display with metric or nautical units.
time (UTC)temp
F
wind
direction
speed
MPH
gust
MPH
rain 1hr
in
rain 24hr
in
rain mn
in
humidity
%
barometer
mb
20260507225021 59 204 0.0 1.0 0.00 0.12 0.01 72 1006.4
20260507224547 59 204 0.0 1.0 0.00 0.12 0.01 73 1006.4
20260507224013 59 204 0.0 1.0 0.00 0.12 0.01 72 1006.3
20260507223535 59 204 0.0 1.0 0.00 0.12 0.01 72 1006.3
20260507223102 59 204 0.0 1.0 0.00 0.12 0.01 72 1006.3
20260507222523 59 204 0.0 1.0 0.00 0.12 0.01 73 1006.1
20260507222049 59 204 0.0 1.0 0.00 0.12 0.01 72 1006.1
20260507221518 59 204 0.0 2.0 0.00 0.12 0.01 72 1006.0
20260507221041 59 204 0.0 2.0 0.00 0.12 0.01 72 1006.0
20260507220507 59 203 0.0 3.0 0.00 0.12 0.01 72 1005.9
20260507220038 60 203 0.0 3.0 0.00 0.12 0.01 72 1005.8
20260507215503 60 181 0.0 2.0 0.00 0.12 0.01 72 1005.8
20260507215027 60 179 0.0 2.0 0.00 0.12 0.01 72 1005.8
20260507214616 60 179 0.0 3.0 0.00 0.12 0.01 72 1005.8
20260507214026 60 177 0.0 3.0 0.00 0.12 0.01 72 1005.9
20260507213552 60 189 0.0 2.0 0.00 0.12 0.01 72 1005.9
20260507213014 60 194 0.0 2.0 0.00 0.12 0.01 72 1005.9
20260507212538 60 194 0.0 2.0 0.00 0.12 0.01 72 1005.8
20260507212057 60 194 0.0 2.0 0.00 0.12 0.01 72 1005.8
20260507211517 60 194 0.0 2.0 0.00 0.12 0.01 72 1005.8
20260507211043 60 195 0.0 2.0 0.00 0.12 0.01 72 1005.6
20260507210553 60 194 0.0 2.0 0.00 0.12 0.01 72 1005.7
20260507210031 60 190 0.0 3.0 0.00 0.12 0.01 72 1005.7
20260507205537 60 188 0.0 3.0 0.00 0.12 0.01 72 1005.7
20260507205000 60 167 0.0 3.0 0.00 0.12 0.01 71 1005.8
20260507204533 60 183 0.0 2.0 0.00 0.12 0.01 71 1005.9
20260507204059 60 196 0.0 2.0 0.00 0.12 0.01 70 1005.8
20260507203524 60 179 0.0 2.0 0.00 0.12 0.01 72 1005.9
20260507203053 60 178 0.0 2.0 0.00 0.12 0.01 72 1005.8
20260507202508 60 168 0.0 3.0 0.00 0.12 0.01 71 1005.9
20260507202032 59 186 1.0 3.0 0.00 0.12 0.01 72 1006.0
20260507201558 59 198 0.0 1.0 0.00 0.12 0.01 72 1005.9
20260507201018 59 195 0.0 2.0 0.00 0.12 0.01 70 1006.1
20260507200541 59 188 0.0 2.0 0.00 0.12 0.01 71 1006.2
20260507200013 59 188 0.0 2.0 0.00 0.12 0.01 71 1006.2
20260507195538 59 188 0.0 2.0 0.00 0.12 0.01 71 1006.3
20260507195103 59 189 0.0 2.0 0.00 0.12 0.01 71 1006.2
20260507194531 59 188 0.0 2.0 0.00 0.12 0.01 72 1006.3
20260507194047 59 188 0.0 2.0 0.00 0.12 0.01 71 1006.3
20260507193508 59 188 0.0 2.0 0.00 0.12 0.01 72 1006.5
20260507193034 59 302 0.0 1.0 0.00 0.12 0.01 72 1006.7
20260507192557 59 302 0.0 2.0 0.00 0.12 0.01 72 1006.8
20260507192023 59 302 0.0 2.0 0.00 0.12 0.01 71 1006.8
20260507191551 59 303 0.0 1.0 0.00 0.12 0.01 71 1006.8
20260507191018 59 303 0.0 1.0 0.00 0.12 0.01 72 1006.8
20260507190543 59 302 0.0 1.0 0.00 0.12 0.01 72 1007.0
20260507190005 58 303 0.0 2.0 0.00 0.12 0.01 73 1007.1
20260507185538 58 303 0.0 2.0 0.00 0.12 0.01 72 1007.0
20260507185105 58 303 0.0 1.0 0.00 0.12 0.01 73 1007.1
20260507184527 57 303 0.0 1.0 0.00 0.12 0.01 72 1007.1
20260507184050 56 302 0.0 2.0 0.00 0.12 0.01 73 1007.2
20260507183511 56 302 1.0 3.0 0.00 0.12 0.01 73 1007.2
20260507183038 56 275 0.0 3.0 0.00 0.12 0.01 72 1007.1
20260507182502 55 210 0.0 2.0 0.00 0.12 0.01 72 1007.2
20260507182034 56 157 0.0 2.0 0.00 0.12 0.01 73 1007.3
20260507181559 55 157 0.0 2.0 0.00 0.12 0.01 73 1007.4
20260507181022 55 157 0.0 2.0 0.00 0.12 0.01 73 1007.5
20260507180553 55 156 0.0 2.0 0.00 0.12 0.01 73 1007.6
20260507180020 55 156 0.0 3.0 0.00 0.12 0.01 73 1007.6
20260507175542 56 135 0.0 3.0 0.00 0.12 0.01 73 1007.7
20260507175003 55 169 0.0 0.0 0.00 0.12 0.01 71 1007.7
20260507174544 54 169 0.0 2.0 0.00 0.12 0.01 72 1007.8
20260507174100 54 169 0.0 2.0 0.00 0.12 0.01 73 1007.7
20260507173527 54 163 0.0 1.0 0.00 0.12 0.01 73 1008.0
20260507173049 54 163 0.0 1.0 0.00 0.12 0.01 73 1008.2
20260507172513 54 163 0.0 1.0 0.00 0.12 0.01 73 1008.2
20260507172038 54 163 0.0 1.0 0.00 0.12 0.01 73 1008.2
20260507171501 54 160 0.0 1.0 0.00 0.12 0.01 73 1008.3
20260507171034 54 160 0.0 1.0 0.00 0.12 0.01 72 1008.4
20260507170601 54 158 0.0 2.0 0.00 0.12 0.01 72 1008.5
20260507170021 53 159 0.0 2.0 0.00 0.12 0.01 73 1008.5
20260507165546 53 158 0.0 0.0 0.00 0.12 0.01 72 1008.6
20260507165009 53 158 0.0 3.0 0.00 0.12 0.01 72 1008.7
20260507164535 53 158 0.0 3.0 0.00 0.12 0.01 71 1008.6
20260507164101 53 132 0.0 3.0 0.00 0.12 0.01 72 1008.6
20260507163522 53 111 0.0 1.0 0.00 0.12 0.01 71 1008.7
20260507163045 53 136 0.0 1.0 0.00 0.12 0.01 70 1008.9
20260507162504 52 136 0.0 1.0 0.00 0.12 0.01 71 1008.9
20260507162028 52 190 0.0 1.0 0.00 0.12 0.01 70 1009.0
20260507161553 52 183 0.0 0.0 0.00 0.12 0.01 68 1009.1
20260507161016 51 183 0.0 1.0 0.00 0.12 0.01 71 1009.1
20260507160542 51 183 0.0 1.0 0.00 0.12 0.01 71 1009.2
20260507160001 51 183 0.0 1.0 0.00 0.12 0.01 68 1009.4
20260507155526 51 183 0.0 2.0 0.00 0.12 0.01 68 1009.7
20260507155053 51 183 0.0 2.0 0.00 0.12 0.01 68 1009.6
20260507154530 51 183 0.0 2.0 0.00 0.12 0.01 69 1009.6
20260507154048 51 182 0.0 2.0 0.00 0.12 0.01 69 1009.5
20260507153512 50 177 0.0 1.0 0.00 0.12 0.01 69 1009.6
20260507153041 50 157 0.0 2.0 0.00 0.12 0.01 67 1009.7
20260507152559 50 157 0.0 2.0 0.00 0.12 0.01 66 1009.8
20260507152020 50 156 0.0 1.0 0.00 0.12 0.01 64 1009.5
20260507151542 50 163 0.0 1.0 0.00 0.12 0.01 65 1009.6
20260507151001 50 163 0.0 2.0 0.00 0.12 0.01 64 1009.6
20260507150524 50 182 0.0 2.0 0.00 0.12 0.01 58 1009.4
20260507150056 50 286 0.0 2.0 0.00 0.12 0.01 59 1009.6
20260507145602 50 258 0.0 0.0 0.00 0.12 0.01 57 1009.7
20260507145026 50 258 0.0 1.0 0.00 0.12 0.01 58 1009.8
20260507144546 50 258 0.0 1.0 0.00 0.12 0.01 56 1009.7
20260507144100 50 258 0.0 1.0 0.00 0.12 0.01 54 1009.9
20260507143523 50 258 0.0 1.0 0.00 0.12 0.01 51 1009.9
20260507143051 50 262 0.0 1.0 0.00 0.12 0.01 48 1010.0
20260507142519 50 263 0.0 0.0 0.00 0.12 0.01 49 1010.0
20260507142044 50 263 0.0 0.0 0.00 0.12 0.01 50 1010.1
20260507141510 50 263 0.0 1.0 0.00 0.12 0.01 51 1010.2
20260507141035 50 263 0.0 1.0 0.00 0.12 0.01 51 1010.2
20260507140601 50 262 0.0 2.0 0.00 0.12 0.01 51 1010.1
20260507140033 50 262 0.0 2.0 0.00 0.12 0.01 51 1010.3
20260507135559 50 199 0.0 1.0 0.00 0.12 0.01 50 1010.2
20260507135025 50 109 0.0 0.0 0.00 0.12 0.01 51 1010.2
20260507134549 51 108 0.0 0.0 0.00 0.12 0.01 50 1010.3
20260507134003 51 108 0.0 0.0 0.00 0.12 0.01 49 1010.2
20260507133526 51 108 0.0 0.0 0.00 0.12 0.01 50 1010.2
20260507133053 51 108 0.0 0.0 0.00 0.12 0.01 50 1010.2
20260507132515 50 108 0.0 1.0 0.00 0.12 0.01 52 1010.2
20260507132040 51 108 0.0 1.0 0.00 0.12 0.01 49 1010.2
20260507131501 51 108 0.0 0.0 0.00 0.12 0.01 49 1010.2
20260507131027 51 108 0.0 0.0 0.00 0.12 0.01 47 1010.2
20260507130553 51 108 0.0 0.0 0.00 0.14 0.01 48 1010.2
20260507130035 50 108 0.0 0.0 0.00 0.14 0.01 49 1010.3
20260507125546 50 108 0.0 0.0 0.00 0.14 0.01 51 1010.3
20260507125008 50 108 0.0 1.0 0.00 0.14 0.01 49 1010.2
20260507124543 50 108 0.0 1.0 0.00 0.14 0.01 49 1010.2
20260507124005 50 108 0.0 1.0 0.00 0.14 0.01 49 1010.3
20260507123528 50 108 0.0 1.0 0.00 0.14 0.01 48 1010.4
20260507123051 50 110 0.0 1.0 0.00 0.14 0.01 43 1010.3
20260507122513 50 111 0.0 0.0 0.00 0.14 0.01 42 1010.5
20260507122037 50 111 0.0 0.0 0.00 0.14 0.01 43 1010.4
20260507121601 50 111 0.0 0.0 0.00 0.14 0.01 42 1010.2
20260507121020 50 110 0.0 0.0 0.00 0.14 0.01 40 1010.0
20260507120544 50 110 0.0 0.0 0.00 0.14 0.01 39 1009.9
20260507120021 50 110 0.0 0.0 0.00 0.14 0.01 39 1009.9
20260507115537 50 111 0.0 0.0 0.00 0.14 0.01 40 1009.9
20260507115101 50 111 0.0 0.0 0.00 0.14 0.01 38 1009.8
20260507114522 50 111 0.0 0.0 0.00 0.14 0.01 37 1009.8
20260507114046 50 111 0.0 0.0 0.00 0.14 0.01 37 1009.7
20260507113507 50 111 0.0 0.0 0.00 0.14 0.01 37 1009.7
20260507113033 50 110 0.0 0.0 0.00 0.14 0.01 36 1009.7
20260507112556 50 111 0.0 0.0 0.00 0.14 0.01 35 1009.6
20260507112016 50 111 0.0 0.0 0.00 0.14 0.01 34 1009.7
20260507111540 50 111 0.0 0.0 0.00 0.14 0.01 33 1009.8
20260507111012 50 111 0.0 0.0 0.00 0.14 0.01 33 1009.7
20260507110528 50 111 0.0 0.0 0.00 0.14 0.01 33 1009.6
20260507110053 50 111 0.0 0.0 0.00 0.14 0.01 33 1009.6
20260507105515 50 111 0.0 0.0 0.00 0.14 0.01 34 1009.5
20260507105040 50 111 0.0 0.0 0.00 0.14 0.01 34 1009.3
20260507104511 50 111 0.0 0.0 0.00 0.14 0.01 33 1009.2
20260507104036 50 111 0.0 0.0 0.00 0.14 0.01 33 1009.1
20260507103500 50 110 0.0 0.0 0.00 0.14 0.01 32 1009.0
20260507103030 50 110 0.0 0.0 0.00 0.14 0.01 32 1009.1
20260507102541 50 111 0.0 0.0 0.00 0.14 0.01 31 1009.2
20260507102006 50 110 0.0 0.0 0.00 0.14 0.01 31 1009.4
20260507101530 50 110 0.0 0.0 0.00 0.14 0.01 31 1009.4
20260507101054 50 110 0.0 0.0 0.00 0.14 0.01 31 1009.3
20260507100530 50 110 0.0 0.0 0.00 0.14 0.01 31 1009.3
20260507100053 50 110 0.0 0.0 0.00 0.14 0.01 30 1009.3
20260507095517 50 110 0.0 0.0 0.00 0.14 0.01 30 1009.2
20260507095043 50 110 0.0 0.0 0.00 0.14 0.01 30 1009.1
20260507094512 50 110 0.0 0.0 0.00 0.14 0.01 30 1009.2
20260507094035 51 110 0.0 0.0 0.00 0.14 0.01 30 1009.2
20260507093509 51 110 0.0 0.0 0.00 0.14 0.01 29 1008.9
20260507093048 51 110 0.0 0.0 0.00 0.14 0.01 29 1008.8
20260507092507 50 110 0.0 0.0 0.00 0.14 0.01 30 1008.7
20260507092030 50 110 0.0 0.0 0.00 0.14 0.01 30 1008.9
20260507091503 51 110 0.0 0.0 0.00 0.14 0.01 30 1009.0
20260507091039 51 110 0.0 0.0 0.00 0.14 0.01 30 1008.9
20260507090501 51 110 0.0 0.0 0.00 0.14 0.01 31 1008.9
20260507090023 51 111 0.0 0.0 0.00 0.14 0.01 31 1009.0
20260507085548 51 111 0.0 0.0 0.00 0.14 0.01 31 1008.8
20260507085012 51 111 0.0 0.0 0.00 0.14 0.01 31 1008.8
20260507084536 51 111 0.0 1.0 0.00 0.14 0.01 31 1008.7
20260507084006 51 111 0.0 1.0 0.00 0.14 0.01 30 1008.7
20260507083540 51 41 0.0 1.0 0.00 0.14 0.01 30 1008.4
20260507083004 51 121 0.0 1.0 0.00 0.14 0.01 29 1008.4
20260507082528 51 121 0.0 1.0 0.00 0.14 0.01 29 1008.6
20260507082057 51 122 0.0 1.0 0.00 0.14 0.01 30 1008.6
20260507081515 52 129 0.0 1.0 0.00 0.14 0.01 29 1008.4
20260507081039 52 129 0.0 2.0 0.00 0.14 0.01 28 1008.7
20260507080511 52 130 0.0 2.0 0.00 0.14 0.01 28 1008.9
20260507080040 52 129 0.0 2.0 0.00 0.14 0.01 29 1008.9
20260507075601 52 129 0.0 2.0 0.01 0.14 0.01 28 1008.8
20260507075035 52 134 0.0 0.0 0.01 0.14 0.01 28 1008.8
20260507074600 52 119 0.0 2.0 0.01 0.14 0.01 28 1008.8
20260507074021 52 121 0.0 2.0 0.01 0.14 0.01 28 1008.6
20260507073549 52 5 0.0 2.0 0.01 0.14 0.01 28 1008.6
20260507073006 52 5 0.0 2.0 0.01 0.14 0.01 29 1008.4
20260507072530 52 106 0.0 4.0 0.01 0.14 0.01 29 1008.4
20260507072055 52 135 0.0 4.0 0.01 0.14 0.01 29 1008.2
20260507071556 53 30 0.0 2.0 0.01 0.14 0.01 29 1008.1
20260507071050 53 85 0.0 2.0 0.01 0.14 0.01 29 1007.9
20260507070514 53 9 0.0 2.0 0.01 0.14 0.01 28 1008.1
20260507070038 53 51 0.0 2.0 0.01 0.14 0.01 29 1008.3
20260507065600 53 317 0.0 3.0 0.00 0.13 0.00 29 1008.1
20260507065025 53 144 0.0 3.0 0.00 0.13 0.00 29 1007.8
20260507064544 53 221 0.0 3.0 0.00 0.13 0.00 29 1008.0
20260507064008 54 146 0.0 1.0 0.00 0.13 0.00 28 1007.9
20260507063528 54 242 0.0 1.0 0.00 0.13 0.00 28 1008.2
20260507063052 54 219 0.0 1.0 0.00 0.13 0.00 27 1008.1
20260507062516 54 210 0.0 0.0 0.00 0.13 0.00 27 1008.2
20260507062038 54 211 0.0 1.0 0.00 0.13 0.00 28 1008.1
20260507061601 55 136 0.0 1.0 0.00 0.13 0.00 28 1007.9
20260507061023 55 138 0.0 2.0 0.00 0.13 0.00 27 1008.0
20260507060547 55 138 0.0 2.0 0.00 0.13 0.00 27 1008.0
20260507060013 56 273 0.0 0.0 0.00 0.13 0.00 25 1008.2
20260507055533 56 273 0.0 0.0 0.00 0.13 0.00 23 1008.1
20260507055056 56 273 0.0 2.0 0.00 0.13 0.00 23 1008.2
20260507054516 57 273 0.0 2.0 0.00 0.13 0.00 23 1008.3
20260507054039 57 273 0.0 1.0 0.00 0.13 0.00 22 1008.3
20260507053509 57 277 0.0 0.0 0.00 0.13 0.00 22 1008.3
20260507053054 57 277 0.0 0.0 0.00 0.13 0.00 21 1008.2
20260507052553 58 277 0.0 1.0 0.00 0.13 0.00 20 1007.9
20260507052027 57 277 0.0 1.0 0.00 0.13 0.00 20 1007.5
20260507051600 57 274 0.0 1.0 0.00 0.13 0.00 21 1007.8
20260507051010 57 275 0.0 1.0 0.00 0.13 0.00 22 1007.6
20260507050543 57 273 0.0 0.0 0.00 0.13 0.00 22 1007.7
20260507050005 57 273 0.0 0.0 0.00 0.13 0.00 23 1007.6
20260507045529 57 273 0.0 0.0 0.01 0.13 0.00 24 1007.2
20260507045055 57 273 0.0 0.0 0.02 0.13 0.00 25 1007.0
20260507044519 58 273 0.0 1.0 0.07 0.13 0.00 25 1007.2
20260507044040 58 271 0.0 1.0 0.09 0.13 0.00 26 1006.9
20260507043512 58 265 0.0 0.0 0.09 0.13 0.00 26 1006.9
20260507043037 58 265 0.0 0.0 0.09 0.13 0.00 26 1006.9
20260507042557 59 265 0.0 1.0 0.09 0.13 0.00 26 1007.2
20260507042025 59 265 0.0 1.0 0.09 0.13 0.00 25 1007.4
20260507041548 59 263 0.0 1.0 0.09 0.13 0.00 24 1007.4
20260507041018 59 264 0.0 1.0 0.09 0.13 0.00 25 1007.6
20260507040542 60 264 0.0 1.0 0.09 0.13 0.13 25 1007.8
20260507040005 60 264 0.0 0.0 0.09 0.13 0.13 25 1007.9
20260507035529 60 264 0.0 0.0 0.08 0.12 0.12 25 1007.7
20260507035056 60 264 0.0 0.0 0.07 0.11 0.11 24 1007.9
20260507034529 61 264 0.0 0.0 0.02 0.06 0.06 24 1008.3
20260507034039 61 264 0.0 0.0 0.00 0.04 0.04 25 1007.8
20260507033509 61 264 0.0 1.0 0.00 0.04 0.04 25 1007.7
20260507033043 61 263 0.0 0.0 0.00 0.04 0.04 25 1007.8
20260507032601 61 263 0.0 0.0 0.00 0.04 0.04 25 1007.7
20260507032031 61 263 0.0 0.0 0.01 0.04 0.04 25 1007.7
20260507031558 61 263 0.0 0.0 0.01 0.04 0.04 27 1007.8
20260507031020 61 263 0.0 0.0 0.01 0.04 0.04 28 1007.5
20260507030543 61 263 0.0 0.0 0.01 0.04 0.04 30 1007.4
20260507030020 62 263 0.0 0.0 0.02 0.04 0.04 32 1007.5
20260507025540 62 263 0.0 0.0 0.02 0.04 0.04 34 1007.2
20260507025006 62 263 0.0 0.0 0.02 0.04 0.04 37 1007.3
20260507024533 62 263 0.0 0.0 0.02 0.04 0.04 40 1007.3
20260507024051 62 263 0.0 0.0 0.02 0.04 0.04 43 1007.3
20260507023516 62 263 0.0 0.0 0.02 0.04 0.04 45 1007.3
20260507023041 62 263 0.0 0.0 0.02 0.04 0.04 44 1007.3
20260507022504 63 263 0.0 1.0 0.02 0.04 0.04 45 1007.0
20260507022039 63 263 0.0 1.0 0.01 0.03 0.03 51 1006.9
20260507021501 64 263 0.0 0.0 0.01 0.03 0.03 57 1006.9
20260507021031 64 263 0.0 0.0 0.01 0.03 0.03 59 1006.7
20260507020557 64 263 0.0 0.0 0.01 0.03 0.03 65 1006.8
20260507020021 64 263 0.0 0.0 0.00 0.02 0.02 66 1006.5
20260507015541 64 263 0.0 1.0 0.00 0.02 0.02 67 1006.5
20260507015005 64 263 0.0 1.0 0.00 0.02 0.02 68 1006.5
20260507014548 65 263 0.0 1.0 0.00 0.02 0.02 67 1006.5
20260507014101 65 263 0.0 1.0 0.00 0.02 0.02 68 1006.5
20260507013526 65 260 0.0 1.0 0.00 0.02 0.02 67 1006.4
20260507013050 65 242 0.0 0.0 0.00 0.02 0.02 68 1006.3
20260507012511 66 242 0.0 0.0 0.00 0.02 0.02 68 1006.2
20260507012036 66 242 0.0 0.0 0.00 0.02 0.02 68 1006.2
20260507011507 66 242 0.0 0.0 0.00 0.02 0.02 68 1006.3
20260507011034 66 242 0.0 0.0 0.00 0.02 0.02 69 1006.4
20260507010600 67 242 0.0 0.0 0.00 0.02 0.02 69 1006.5
20260507010026 67 242 0.0 0.0 0.00 0.02 0.02 70 1006.5
20260507005549 67 242 0.0 0.0 0.00 0.02 0.02 70 1006.6
20260507005021 67 242 0.0 0.0 0.00 0.02 0.02 70 1006.6
20260507004549 67 242 0.0 0.0 0.00 0.02 0.02 71 1006.8
20260507004011 67 242 0.0 0.0 0.00 0.02 0.02 70 1006.6
20260507003538 67 242 0.0 0.0 0.00 0.02 0.02 70 1006.7
20260507003008 67 242 0.0 1.0 0.00 0.02 0.02 70 1006.5
20260507002533 67 242 0.0 1.0 0.00 0.02 0.02 70 1006.5
20260507002100 67 230 0.0 0.0 0.00 0.02 0.02 70 1006.5
20260507001521 68 230 0.0 0.0 0.00 0.02 0.02 70 1006.4
20260507001046 68 230 0.0 1.0 0.00 0.02 0.02 71 1006.3
20260507000509 68 230 0.0 2.0 0.00 0.02 0.02 71 1006.1
20260507000037 68 230 0.0 2.0 0.00 0.02 0.02 71 1006.1
20260506235605 68 229 0.0 0.0 0.00 0.02 0.02 71 1005.9
20260506235035 68 229 0.0 1.0 0.00 0.02 0.02 71 1005.6
20260506234601 68 229 0.0 0.0 0.00 0.02 0.02 71 1005.6
20260506234026 68 229 0.0 1.0 0.00 0.02 0.02 72 1005.7
20260506233548 68 229 0.0 2.0 0.00 0.02 0.02 72 1005.5
20260506233010 68 229 0.0 3.0 0.00 0.02 0.02 72 1005.6
20260506232532 69 229 0.0 2.0 0.00 0.02 0.02 72 1005.8
20260506232058 69 229 0.0 3.0 0.00 0.02 0.02 72 1005.8
20260506231527 69 226 0.0 3.0 0.00 0.02 0.02 72 1005.7
20260506231056 69 225 0.0 4.0 0.00 0.02 0.02 72 1005.7
20260506230517 69 225 0.0 4.0 0.00 0.02 0.02 72 1005.6
20260506230041 69 224 0.0 3.0 0.00 0.02 0.02 72 1005.5
20260506225507 69 229 0.0 2.0 0.00 0.02 0.02 72 1005.4